Flag for Canada Weather past 2 weeks in Sault Ste. Marie, Ontario, Canada

46 °F

Broken clouds.

Feels Like: 44 °F
Forecast: 38 / 60 °F
Wind: 5 mph from South

Location: Sault Ste Marie

Current Time: Oct 10, 2015 at 10:35:38 AM

Latest Report: Oct 10, 2015 at 10:00 AM

Visibility: 15 mi

Pressure: 30.11 "Hg

Humidity: 76%

Dew point: 39 °F

Location of Sault Ste. MarieLocation

Historic Weather in Sault Ste. Marie — Graph


Sault Ste. Marie temperature yesterday

Maximum temperature yesterday: 55 °F (at 12:00 PM)
Minimum temperature yesterday: 45 °F (at 8:00 AM)
Average temperature yesterday: 51 °F

Past Weeks' High & Low Weather Summary

High75 °F (Sep 28, 2:00 PM)100% (Sep 27, 7:00 AM)30.68 "Hg (Sep 27, 7:00 AM)
Low32 °F (Oct 10, 7:00 AM)29% (Oct 2, 4:00 PM)29.84 "Hg (Oct 8, 10:00 PM)
Average52 °F73%30.25 "Hg
* Reported Sep 25 9:00 AM — Oct 10 9:00 AM, Sault Ste. Marie, Weather by CustomWeather, © 2015

Note: Actual official high and low records may vary slightly from our data, if they occured in-between our weather recording intervals... More about our weather records


Sault Ste. Marie weather history for previous 24 hours

Time TempWeatherWind HumidityBarometerVisibility
9:00 AM
Sat, Oct 10
41 °FBroken clouds.3 mph93%30.13 "Hg14 mi
8:00 AM32 °FFog.2 mph100%30.15 "Hg15 mi
7:00 AM32 °FFog.3 mph93%30.17 "Hg15 mi
6:00 AM34 °FFog.3 mph93%30.16 "Hg15 mi
5:00 AM37 °FPassing clouds.3 mph93%30.17 "Hg15 mi
4:00 AM41 °FPassing clouds.2 mph87%30.17 "Hg15 mi
3:00 AM43 °FMostly cloudy.5 mph81%30.19 "Hg15 mi
2:00 AM45 °FOvercast.6 mph76%30.20 "Hg15 mi
1:00 AM45 °FOvercast.5 mph81%30.19 "Hg15 mi
12:00 AM43 °FOvercast.2 mph81%30.18 "Hg15 mi
11:00 PM
Fri, Oct 9
48 °FMostly cloudy.5 mph66%30.17 "Hg15 mi
10:00 PM48 °FPartly cloudy.12 mph66%30.17 "Hg15 mi
9:00 PM48 °FPassing clouds.12 mph62%30.17 "Hg15 mi
8:00 PM48 °FScattered clouds.13 mph66%30.16 "Hg15 mi
7:00 PM50 °FScattered clouds.16 mph62%30.14 "Hg15 mi
6:00 PM54 °FPartly sunny.17 mph54%30.13 "Hg15 mi
5:00 PM54 °FPartly sunny.20 mph67%30.11 "Hg15 mi
4:00 PM55 °FPartly sunny.23 mph67%30.10 "Hg15 mi
3:00 PM55 °FBroken clouds.20 mph63%30.09 "Hg15 mi
2:00 PM55 °FBroken clouds.20 mph63%30.09 "Hg15 mi
1:00 PM55 °FBroken clouds.20 mph63%30.09 "Hg15 mi
12:00 PM55 °FPassing clouds.15 mph63%30.07 "Hg15 mi
11:00 AM52 °FPassing clouds.15 mph72%30.06 "Hg15 mi
10:00 AM50 °FPassing clouds.12 mph71%30.05 "Hg15 mi
Weather by CustomWeather, © 2015

See weather overviewHow to use our weather pages